Location: Ceske Budejovice
(48.9830°N, 14.4670°E)
Time: 00:23:03
(UTC+02:00)

ISS - Pass Details

Date: 28 March 2019
Orbit: 408 x 410 km, 51.6° (Epoch: 18 April)

Event Time Altitude Azimuth Distance (km) Brightness Sun altitude
Rises 19:18:06 0° 262° (W) 2,335 1.4 -9.1°
Reaches altitude 10° 19:20:12 10° 266° (W) 1,474 0.3 -9.5°
Maximum altitude 19:23:29 62° 348° (NNW) 465 -3.4 -10.0°
Enters shadow 19:26:37 11° 70° (ENE) 1,418 -1.5 -10.5°
